Dewpoint
-0 -3 -4 -4 -1 1 1 1 1 1 2 -2 1 2 2 2 2 -4 1 -1 -4 1 -2 -8 -8 -7 -6 -6 -10 -10 -7 -9
0 -2 -4 -4 -2 1 2 2 2 2 -2 2 2 2 1 2 3 0 -4 -5 -5 -6 -6 -6 -7 -7 -7 -6 -8 -10 -9 -9
0 -2 -3 -3 -2 0 2 2 3 1 2 1 1 1 1 3 4 -3 -4 -4 -3 -3 -4 -5 -6 -8 -7 -6 -8 -10 -10 -8
0 -1 -2 -2 -2 -1 1 1 1 1 2 1 0 1 1 2 2 3 -3 -3 -2 -2 -3 -4 -6 -8 -6 -6 -8 -11 -11 -10
-1 -1 -2 -2 -2 -1 1 0 0 1 0 0 0 1 1 2 3 4 0 -2 -1 -2 -3 -4 -6 -7 -5 -6 -10 -13 -10 -8
-2 -1 -2 -1 -1 -1 -0 -0 -0 1 0 -0 -0 0 0 2 3 3 0 -0 -1 -1 -2 -5 -6 -6 -5 -8 -11 -14 -11 -7
-3 -2 -2 -1 -1 -0 -0 -0 -0 0 1 -1 1 0 0 3 4 3 3 2 0 -1 -2 -4 -5 -5 -5 -8 -9 -12 -9 -6
-4 -2 -2 -2 -1 -0 -0 0 -0 0 0 1 0 1 1 2 4 4 3 2 0 -1 -2 -4 -5 -5 -5 -6 -7 -8 -5 -6
-2 -2 -2 -2 -2 -0 1 2 1 0 1 2 2 2 3 4 4 4 2 0 -2 -3 -3 -5 -5 -5 -5 -5 -5 -5 -6 -6
-2 -2 -2 -2 -2 -1 1 2 2 0 1 2 3 3 4 4 4 4 1 -0 -2 -4 -5 -5 -5 -5 -5 -5 -5 -5 -5 -6
-3 -3 -2 -1 -2 -2 0 2 2 1 1 3 3 4 5 4 3 1 -1 -2 -3 -4 -4 -5 -5 -6 -6 -6 -7 -6 -6 -7
1 -0 -1 -1 -1 -1 -0 2 2 1 2 3 4 4 3 2 0 -1 -2 -3 -4 -5 -5 -5 -6 -6 -6 -6 -7 -7 -7 -8
1 1 0 -1 -0 0 1 3 3 3 4 5 4 3 1 -0 -2 -3 -3 -4 -4 -4 -5 -5 -5 -6 -6 -7 -8 -9 -8 -7
2 2 2 1 1 3 3 3 4 4 4 3 2 0 -2 -3 -3 -4 -4 -4 -4 -4 -5 -6 -7 -8 -9 -9 -9 -9 -10 -11
2 3 3 3 3 4 4 3 2 2 1 0 -1 -2 -3 -4 -4 -4 -5 -6 -8 -8 -8 -9 -9 -9 -9 -10 -12 -13 -13 -13
2 2 2 2 2 1 1 0 -1 -2 -2 -3 -4 -5 -5 -6 -7 -10 -10 -10 -9 -9 -8 -9 -10 -11 -11 -12 -12 -13 -14 -16
1 0 -0 -1 -1 -2 -3 -4 -4 -4 -5 -6 -7 -8 -10 -11 -12 -11 -10 -10 -10 -10 -10 -11 -12 -12 -12 -12 -13 -14 -15 -13
-1 -2 -2 -3 -3 -3 -4 -5 -6 -7 -8 -9 -11 -12 -12 -11 -12 -12 -11 -11 -11 -11 -12 -12 -13 -13 -13 -14 -14 -13 -13 -14
-2 -2 -2 -3 -4 -5 -6 -7 -7 -9 -11 -11 -11 -12 -12 -12 -12 -12 -11 -12 -12 -12 -13 -13 -14 -13 -14 -12 -11 -12 -13 -14
Wind_Speed
17 17 17 17 19 17 17 13 12 11 13 10 9 9 6 6 4 1 6 6 8 8 8 12 13 15 20 23 22 20 17 19
18 17 17 17 18 19 18 15 14 15 12 12 8 7 6 6 4 2 2 4 5 7 9 12 14 15 19 22 22 21 20 20
23 21 20 19 20 19 19 17 16 15 11 12 7 9 4 8 7 4 1 2 5 8 10 13 15 15 17 22 22 21 19 16
26 26 25 22 21 21 20 19 18 16 13 12 14 11 12 10 6 4 2 4 7 9 11 13 14 15 17 20 21 19 20 16
25 27 27 25 23 19 21 19 19 17 19 14 13 12 9 7 9 11 9 8 9 11 12 13 14 13 18 20 20 19 17 18
23 27 28 25 23 23 22 20 20 17 19 18 14 14 10 12 13 14 11 11 10 13 13 13 15 17 19 21 20 17 17 15
19 23 26 23 22 23 21 23 20 20 19 20 15 11 10 9 11 10 6 8 14 16 13 15 15 18 21 22 20 18 17 15
16 20 24 21 23 25 22 22 21 20 19 16 18 15 13 10 8 7 7 8 7 11 16 17 15 19 20 21 22 21 14 18
6 12 17 21 24 26 23 19 19 20 18 16 13 14 11 12 9 8 7 6 9 14 20 16 18 20 20 20 22 20 18 19
4 5 13 18 22 25 25 21 17 17 18 13 11 11 10 8 11 12 7 9 6 9 14 17 18 19 18 19 21 22 22 20
7 4 2 10 16 21 25 19 16 14 17 13 10 10 10 9 12 9 10 11 11 15 15 16 18 18 20 21 21 21 23 26
8 6 1 2 5 16 21 17 15 15 15 14 11 9 7 7 4 7 9 11 14 16 15 16 18 20 20 23 25 25 25 26
9 8 5 3 7 8 17 15 13 18 15 13 10 9 4 2 3 4 9 12 13 12 15 18 19 21 23 23 22 20 19 19
11 12 13 13 13 15 14 14 16 14 12 10 6 5 2 3 6 8 8 9 12 15 17 18 19 20 21 22 20 21 25 29
12 14 15 15 16 14 14 16 14 13 13 11 8 6 4 3 5 9 12 15 17 15 16 18 19 20 22 18 25 30 31 33
13 16 18 19 19 18 18 17 15 12 10 6 5 4 2 7 11 13 13 14 15 15 16 18 19 18 19 26 29 31 35 33
16 17 18 19 19 19 18 16 14 11 10 7 4 2 4 9 12 11 12 15 14 16 17 18 19 19 23 25 30 33 31 25
18 18 18 18 17 16 15 14 12 10 8 6 5 6 7 9 11 11 14 15 16 16 17 18 19 19 23 29 30 30 22 22
18 18 19 17 16 15 14 12 10 8 6 6 7 8 9 11 11 13 14 15 16 17 17 18 19 20 25 25 27 27 22 23
Wind_Direction
192 182 186 184 199 182 176 186 179 167 159 151 118 125 135 114 185 122 102 54 70 89 28 35 27 15 14 12 8 10 4 353
196 190 191 187 201 189 186 186 200 182 169 136 158 156 153 179 246 133 105 58 44 39 27 22 17 9 7 3 2 0 0 359
190 192 193 195 209 196 194 191 210 185 164 155 172 181 164 188 212 214 224 21 13 11 10 8 7 3 359 358 353 353 355 4
192 195 191 195 213 203 200 196 212 193 179 176 181 185 199 219 266 279 275 322 340 346 351 353 354 352 353 353 344 347 345 349
198 197 195 200 205 218 200 202 210 208 180 199 193 193 209 221 196 232 281 302 315 325 333 338 346 345 340 345 338 340 338 335
198 198 200 201 203 214 203 205 208 210 199 190 210 193 214 202 217 243 271 298 304 313 322 334 336 336 337 335 330 332 328 323
207 199 196 196 203 210 212 201 206 210 218 198 191 219 199 214 238 268 298 297 318 318 317 324 331 326 329 327 323 326 323 320
200 186 186 192 203 208 214 206 208 212 217 219 200 209 216 227 248 266 243 294 309 266 294 311 319 323 324 320 320 326 324 315
177 193 198 201 206 210 210 209 208 212 215 212 216 211 219 224 239 224 233 242 263 275 290 306 317 322 321 319 320 324 314 303
88 206 216 211 205 213 211 203 210 216 214 212 210 215 204 222 224 226 255 258 263 284 290 309 316 319 321 319 314 312 312 306
61 55 243 232 220 216 212 207 198 213 207 194 201 209 212 224 233 253 231 252 273 290 304 311 319 323 320 316 315 315 308 306
49 44 56 181 205 211 205 196 181 207 188 174 188 184 195 225 200 236 271 281 291 307 323 322 316 314 312 309 312 312 311 312
58 49 61 133 123 105 166 156 179 153 157 160 160 191 202 222 257 266 287 307 323 318 312 306 307 308 308 313 320 313 305 317
74 73 73 81 98 105 128 145 140 135 144 146 147 132 124 225 267 293 310 308 298 299 305 311 313 314 319 315 308 301 309 313
91 88 89 96 102 113 111 101 106 110 112 122 144 173 227 286 295 300 309 311 317 318 316 313 319 321 316 315 320 326 326 322
99 100 102 103 105 105 106 108 110 118 116 118 104 94 315 305 321 329 326 321 323 325 323 322 322 328 318 321 319 324 327 329
113 112 110 108 110 111 117 121 120 130 124 112 105 25 354 331 337 348 326 321 328 325 327 330 333 334 319 317 325 329 335 335
123 118 115 115 116 118 114 114 115 107 95 71 33 10 358 344 345 334 325 334 331 337 337 338 336 334 321 325 325 326 335 330
127 124 122 121 121 119 115 109 102 94 76 47 16 0 359 347 343 340 345 340 342 342 341 339 337 332 318 316 323 332 334 323
Height
1563 1565 1568 1571 1571 1575 1578 1578 1580 1582 1583 1585 1587 1589 1591 1591 1591 1590 1590 1590 1589 1587 1586 1585 1584 1582 1580 1578 1576 1574 1572 1569
1562 1565 1569 1570 1570 1573 1576 1577 1578 1581 1582 1584 1587 1589 1590 1591 1590 1590 1589 1589 1589 1588 1586 1585 1583 1581 1579 1577 1575 1573 1571 1568
1555 1559 1565 1569 1568 1571 1574 1576 1577 1579 1582 1584 1586 1588 1590 1590 1590 1589 1589 1589 1588 1587 1586 1584 1583 1581 1579 1576 1574 1572 1570 1568
1549 1552 1557 1563 1564 1568 1571 1574 1575 1578 1581 1584 1586 1588 1588 1589 1589 1588 1588 1588 1587 1586 1585 1583 1582 1580 1578 1576 1574 1571 1569 1568
1544 1548 1553 1558 1564 1565 1569 1572 1574 1576 1579 1582 1583 1585 1586 1587 1588 1587 1587 1587 1586 1584 1584 1582 1580 1579 1576 1574 1572 1570 1568 1565
1540 1545 1549 1554 1560 1563 1566 1570 1571 1574 1576 1580 1581 1584 1586 1586 1586 1586 1585 1585 1584 1583 1582 1580 1578 1577 1574 1572 1570 1568 1566 1564
1537 1541 1545 1550 1557 1560 1563 1567 1570 1572 1575 1578 1580 1583 1585 1584 1583 1584 1584 1583 1582 1580 1580 1578 1576 1574 1572 1570 1567 1566 1564 1562
1535 1539 1544 1548 1553 1557 1561 1565 1568 1571 1573 1575 1578 1581 1582 1583 1583 1584 1585 1584 1583 1579 1577 1576 1574 1572 1569 1567 1565 1563 1561 1559
1536 1540 1543 1546 1549 1552 1557 1563 1567 1570 1572 1574 1577 1579 1581 1582 1583 1583 1583 1583 1580 1578 1576 1574 1572 1569 1567 1564 1562 1559 1558 1555
1539 1541 1543 1545 1546 1549 1553 1559 1565 1569 1571 1573 1576 1579 1581 1581 1578 1578 1580 1579 1579 1575 1573 1571 1569 1566 1564 1562 1559 1557 1554 1552
1541 1542 1543 1545 1546 1547 1551 1557 1563 1568 1569 1572 1576 1577 1578 1577 1576 1577 1577 1576 1574 1573 1570 1568 1566 1564 1561 1559 1556 1554 1551 1548
1542 1542 1541 1542 1544 1545 1549 1555 1562 1564 1566 1570 1572 1574 1575 1576 1577 1575 1574 1573 1571 1570 1568 1566 1563 1561 1558 1554 1551 1549 1546 1542
1544 1543 1543 1543 1545 1549 1551 1557 1559 1561 1564 1567 1571 1573 1575 1576 1576 1574 1572 1571 1569 1568 1565 1562 1559 1556 1553 1550 1547 1543 1538 1535
1546 1546 1546 1547 1549 1551 1552 1554 1557 1561 1564 1567 1571 1573 1575 1575 1574 1572 1570 1568 1565 1563 1560 1557 1554 1551 1549 1544 1541 1537 1534 1531
1549 1549 1549 1550 1552 1552 1555 1558 1561 1564 1567 1569 1571 1573 1573 1573 1571 1569 1567 1564 1562 1559 1557 1554 1551 1548 1543 1540 1537 1533 1530 1527
1550 1552 1553 1554 1555 1557 1560 1562 1565 1566 1568 1570 1572 1573 1572 1570 1568 1566 1563 1561 1559 1557 1554 1550 1547 1545 1539 1537 1533 1529 1526 1521
1553 1555 1556 1558 1560 1562 1563 1565 1567 1568 1570 1571 1571 1571 1570 1567 1565 1564 1561 1558 1555 1553 1550 1547 1544 1542 1537 1532 1529 1526 1522 1519
1555 1557 1559 1561 1564 1565 1567 1568 1569 1570 1571 1571 1569 1568 1567 1566 1564 1561 1558 1555 1552 1550 1547 1545 1542 1539 1533 1529 1525 1522 1519 1516
1557 1560 1562 1564 1566 1567 1568 1569 1570 1570 1570 1569 1568 1566 1565 1563 1561 1558 1555 1552 1550 1548 1545 1543 1540 1535 1530 1525 1523 1519 1516 1512